User: anonymous   Login
Location: Bailleul
(50.3375°N, 2.8513°E)
Time: 00:02:01
(UTC+00:00)
Language:

Meteor 2-20 - Orbit

View from above orbital plane
View from above orbital plane
View from above satellite
View from above satellite

Ground track
Ground track

The orbit data is extracted from the following two-line orbital elements,

1 20826U 90086A   21262.61904089 -.00000012  00000-0 -24119-4 0  9997
2 20826  82.5245 137.4904 0012806 200.1136 159.9521 13.84259444564746
Epoch (UTC): 19 September 2021 14:51:25
Eccentricity: 0.0012806
inclination: 82.5245°
perigee height: 939 km
apogee height: 958 km
right ascension of ascending node: 137.4904°
argument of perigee: 200.1136°
revolutions per day: 13.84259444
mean anomaly at epoch: 159.9521°
orbit number at epoch: 56474

The dashed part of the orbit path shows where the satellite is in the earth's shadow,  

DLR